This demonstration page uses our WeatherBlox Daily Observations layout. Learn more.

Hourly Observations for October 31, 2020

Temp ( °F °C ) Dew Point ( °F °C ) Humidity (%) Winds ( mph kmh ) Pressure ( in mb ) Visibility ( mi km ) Precip ( " mm )
12:15 am 00:15 Clear 51 10.5 39 4 64 64 SSW 13 20 29.96 1015 10 16.0934 0 0
12:35 am 00:35 Clear 51 10.5 39 4.1 65 65 S 12 19 29.95 1014 10 16.0934 0 0
12:55 am 00:55 Clear 49 9.4 39 3.8 68 68 S 12 19 29.94 1014 10 16.0934 0 0
1:15 am 01:15 Clear 47 8.5 39 3.7 72 72 S 12 19 29.95 1014 10 16.0934 0 0
1:35 am 01:35 Clear 49 9.4 39 4 69 69 S 12 19 29.93 1013 10 16.0934 0 0
1:55 am 01:55 Clear 48 9 39 4 71 71 S 13 20 29.92 1013 10 16.0934 0 0
2:15 am 02:15 Clear 47 8.3 39 3.7 73 73 S 12 19 29.92 1013 10 16.0934 0 0
2:35 am 02:35 Clear 46 8 39 3.7 75 75 S 12 19 29.92 1013 10 16.0934 0 0
2:55 am 02:55 Clear 46 7.6 38 3.5 76 76 SSW 9 15 29.91 1013 10 16.0934 0 0
3:15 am 03:15 Clear 46 7.6 38 3.6 76 76 S 12 19 29.91 1013 10 16.0934 0 0
3:35 am 03:35 Clear 46 7.5 38 3.5 76 76 S 10 17 29.91 1013 10 16.0934 0 0
3:55 am 03:55 Clear 45 7 38 3.3 78 78 S 10 17 29.9 1013 10 16.0934 0 0
4:15 am 04:15 Clear 44 6.6 38 3.2 79 79 S 14 22 29.89 1012 10 16.0934 0 0
4:35 am 04:35 Clear 44 6.5 38 3.2 80 80 S 10 17 29.89 1012 10 16.0934 0 0
4:55 am 04:55 Clear 43 6.1 38 3.2 82 82 S 7 11 29.9 1012 10 16.0934 0 0
5:15 am 05:15 Clear 42 5.5 37 2.9 84 84 SSW 7 11 29.91 1013 10 16.0934 0 0
5:35 am 05:35 Clear 41 5.2 37 3 86 86 S 9 15 29.91 1013 10 16.0934 0 0
5:55 am 05:55 Clear 42 5.5 38 3.1 85 85 S 15 24 29.88 1012 10 16.0934 0 0
6:15 am 06:15 Clear 42 5.5 37 3 84 84 S 12 19 29.89 1012 10 16.0934 0 0
6:35 am 06:35 Clear 41 5 37 3 87 87 SSW 9 15 29.9 1012 10 16.0934 0 0
6:55 am 06:55 Clear 42 5.5 38 3.3 86 86 SSW 12 19 29.9 1013 10 16.0934 0 0
7:15 am 07:15 Clear 42 5.4 38 3.4 87 87 SSW 9 15 29.9 1013 10 16.0934 0 0
7:35 am 07:35 Clear 42 5.8 38 3.6 86 86 SSW 8 13 29.9 1013 10 16.0934 0 0
7:55 am 07:55 Clear 42 5.5 38 3.5 87 87 SW 9 15 29.91 1013 10 16.0934 0 0
8:15 am 08:15 Sunny 41 5.2 38 3.2 87 87 WSW 8 13 29.95 1014 10 16.0934 0 0
8:35 am 08:35 Sunny 42 5.5 38 3.5 87 87 WSW 7 11 29.94 1014 10 16.0934 0 0
8:55 am 08:55 Sunny 43 6 38 3.5 84 84 W 8 13 29.95 1014 10 16.0934 0 0
9:15 am 09:15 Sunny 45 7.1 37 3 75 75 W 8 13 29.96 1015 10 16.0934 0 0
9:35 am 09:35 Sunny 45 7 38 3.2 77 77 WNW 8 13 29.97 1015 10 16.0934 0 0
9:55 am 09:55 Sunny 49 9.5 39 4 69 69 NW 10 17 29.97 1015 10 16.0934 0 0
10:15 am 10:15 Sunny 52 11 38 3.5 60 60 NNW 12 19 29.96 1015 10 16.0934 0 0
10:35 am 10:35 Sunny 53 11.9 38 3.2 56 56 NNW 14 22 29.97 1015 10 16.0934 0 0
10:55 am 10:55 Sunny 55 12.9 37 3 51 51 NNW 14 22 29.97 1015 10 16.0934 0 0
11:15 am 11:15 Sunny 59 15 35 1.4 40 40 NNW 20 31 29.96 1015 10 16.0934 0 0
11:35 am 11:35 Sunny 60 15.4 34 0.9 38 38 N 18 30 29.97 1015 10 16.0934 0 0
11:55 am 11:55 Sunny 61 16.2 33 0.4 34 34 N 14 22 29.97 1015 10 16.0934 0 0
12:15 pm 12:15 Sunny 62 16.8 32 0 32 32 NNW 20 31 29.96 1015 10 16.0934 0 0
12:35 pm 12:35 Sunny 63 17.1 31 -0.3 31 31 NNW 17 28 29.98 1015 10 16.0934 0 0
12:55 pm 12:55 Sunny 64 17.7 31 -0.4 30 30 N 20 31 29.97 1015 10 16.0934 0 0
1:15 pm 13:15 Sunny 64 18 31 -0.8 28 28 NNW 18 30 29.98 1015 10 16.0934 0 0
1:35 pm 13:35 Sunny 65 18.5 30 -1 27 27 N 20 31 29.98 1015 10 16.0934 0 0
1:55 pm 13:55 Sunny 66 18.7 30 -1 27 27 N 22 35 29.98 1015 10 16.0934 0 0
2:15 pm 14:15 Sunny 66 18.9 31 -0.8 27 27 NNW 17 28 29.98 1015 10 16.0934 0 0
2:35 pm 14:35 Sunny 67 19.3 31 -0.8 26 26 NNW 24 39 29.98 1015 10 16.0934 0 0
2:55 pm 14:55 Sunny 65 18.5 30 -1.1 27 27 NNW 20 31 30 1016 10 16.0934 0 0
3:15 pm 15:15 Sunny 64 17.8 30 -1.1 28 28 N 20 31 30.02 1016 10 16.0934 0 0
3:35 pm 15:35 Sunny 64 18 29 -1.5 27 27 NNW 21 33 30.02 1017 10 16.0934 0 0
3:55 pm 15:55 Sunny 64 17.9 30 -0.9 28 28 NNW 13 20 30.02 1017 10 16.0934 0 0
4:15 pm 16:15 Sunny 65 18.4 30 -0.9 27 27 NNW 16 26 30.04 1017 10 16.0934 0 0
4:35 pm 16:35 Sunny 65 18.2 29 -1.6 26 26 NNW 18 30 30.05 1018 10 16.0934 0 0
4:55 pm 16:55 Sunny 64 18 28 -2 26 26 NNW 15 24 30.05 1018 10 16.0934 0 0
5:15 pm 17:15 Sunny 64 17.6 27 -2.6 25 25 N 17 28 30.08 1019 10 16.0934 0 0
5:35 pm 17:35 Sunny 62 16.9 28 -2 28 28 N 20 31 30.09 1019 10 16.0934 0 0
5:55 pm 17:55 Sunny 61 15.9 29 -1.5 31 31 NNW 13 20 30.11 1020 10 16.0934 0 0
6:15 pm 18:15 Sunny 59 15.1 30 -1.3 33 33 NNW 10 17 30.13 1020 10 16.0934 0 0
6:35 pm 18:35 Clear 57 13.9 30 -1.3 35 35 N 10 17 30.16 1021 10 16.0934 0 0
6:55 pm 18:55 Clear 55 12.7 30 -1 39 39 N 12 19 30.19 1022 10 16.0934 0 0
7:15 pm 19:15 Clear 55 12.6 32 0 42 42 N 10 17 30.21 1023 10 16.0934 0 0
7:35 pm 19:35 Clear 53 11.8 32 0.2 45 45 N 10 17 30.23 1024 10 16.0934 0 0
7:55 pm 19:55 Clear 53 11.4 32 0 46 46 N 9 15 30.23 1024 10 16.0934 0 0
8:15 pm 20:15 Clear 51 10.5 32 -0.1 48 48 NNW 8 13 30.26 1025 10 16.0934 0 0
8:35 pm 20:35 Clear 49 9.3 31 -0.3 51 51 NNW 8 13 30.28 1025 10 16.0934 0 0
8:55 pm 20:55 Clear 47 8.6 31 -0.5 53 53 NNW 8 13 30.3 1026 10 16.0934 0 0
9:15 pm 21:15 Clear 47 8.3 31 -0.5 54 54 NNW 8 13 30.31 1026 10 16.0934 0 0
9:35 pm 21:35 Clear 46 7.6 31 -0.7 56 56 NW 7 11 30.32 1027 10 16.0934 0 0
9:55 pm 21:55 Clear 43 6.1 30 -1 61 61 NW 7 11 30.36 1028 10 16.0934 0 0
10:15 pm 22:15 Clear 43 6 30 -1 61 61 NW 7 11 30.37 1028 10 16.0934 0 0
10:35 pm 22:35 Clear 41 5 29 -1.5 63 63 NNW 8 13 30.39 1029 10 16.0934 0 0
10:55 pm 22:55 Clear 41 4.8 29 -1.5 64 64 NW 6 9 30.41 1030 10 16.0934 0 0
11:15 pm 23:15 Clear 39 4.1 29 -1.9 65 65 NW 7 11 30.42 1030 10 16.0934 0 0
11:35 pm 23:35 Clear 39 3.7 28 -2.2 66 66 NW 6 9 30.43 1030 10 16.0934 0 0
11:55 pm 23:55 Clear 36 2.3 26 -3.1 68 68 WNW 3 6 30.44 1031 10 16.0934 0 0

Powered by AerisWeather